San Diego Classic - Holiday Cup - Inventory

Station: INVENTORY - T Race

Distance: 10 Miles    

Release: 10-Jun-2022 08:00

Weather Release:    Arrival:

Wind at Release:     Wind at Arrival:

Temp at Release: °    Temp at Arrival: °

Lofts: 148

Birds: 774

Clocked: 678

Good Luck to Everyone!
Drops Pos Breeder Pigeon Name Color Sex Ent Arrival Speed To Win Elg PdRaceAvg Speed
1 Gene & Eddie - CA 0220-AU22-VIP BBSP H 1 08:05:56.30 2963.795 00:00:00 Yes
2 Nick Fan - NS 5004-CU22-CANA BCWF H 1 08:05:57.70 2952.195 00:00:01 Yes
3 TOPO - CA 0036-AU22-TOPO BB H 1 08:05:58.10 2948.897 00:00:02 Yes
4 Alas de Oro - NV 0563-IF22-E BB H 1 08:05:59.30 2939.048 00:00:03 Yes
5 Gus Medel - 1213-AU22-SD BB H 1 08:06:07.30 2875.034 00:00:11 Yes
6 Simon Chi And George Xu - CA 1337-AU22-BON BB H 1 08:06:10.00 2854.054 00:00:14 Yes
7 Tim Brandon - CA 22123-AU22-SNV BB H 1 08:06:33.20 2685.656 00:00:37 Yes
8 Steve Lance - CA 0528-AU22-TOPP BB H 1 08:06:38.70 2648.608 00:00:42 Yes
9 Desert Rose Loft - NV 28278-AU22-JEDD BB H 1 08:06:40.40 2637.363 00:00:44 Yes
10 Viper Loft - CA 0263-AU22-TOPP BBWF H 1 08:06:41.40 2630.792 00:00:45 Yes
11 Nestor Hernandez - 0112-AU22-ARZ BLK H 1 08:06:43.00 2620.347 00:00:47 Yes
12 El Dorado Lofts Canada - BC 1061-AU22-SIER BB H 1 08:06:49.90 2576.238 00:00:54 Yes
13 Cpca Syndicate - AZ 2000-AU22-WFA BB H 1 08:06:54.10 2550.109 00:00:58 Yes
14 Mesopotamia Loft - CA 0626-AU22-VITA BC H 1 08:06:56.60 2534.806 00:01:00 Yes
15 Jennifer Rankin - TX 22207-AU22-APC BB H 1 08:07:00.10 2513.687 00:01:04 Yes
16 Cpca Syndicate - AZ 2002-AU22-WFA BC H 2 08:07:12.80 2439.926 00:01:17 Yes
17 Nick Fan - NS 0114-AU22-SD BBWF H 2 08:07:22.90 2384.285 00:01:27 Yes
18 Fassio Loft - UT 2426-AU22-SLI Koop City Silver Vandy SIL H 1 08:07:23.50 2381.060 00:01:27 Yes
19 LFL - Norman Lewellen - HI 1987-AU22-VITA GRIZ H 1 08:07:24.90 2373.567 00:01:29 Yes
20 Hi-Cal Connection - CA 0407-AU22-AUB BB H 1 08:07:29.90 2347.188 00:01:34 Yes
21 Flying K9`S - AB 0796-AU22-K9S BC H 1 08:07:37.90 2306.180 00:01:42 Yes
22 Genesis Syndicate - 0733-AU22-GENE BBSP H 1 08:07:50.00 2246.809 00:01:54 Yes
23 BARRERAS TEAM - CA 2067-AU22-JBL BC H 1 08:08:07.90 2164.378 00:02:12 Yes
24 Flying Mustangs - CA 25331-AU22-AA BBWF H 1 08:08:17.90 2120.908 00:02:22 Yes
25 Hugo Avila Loft - CA 0769-AU22-MAJO BC H 1 08:08:28.20 2077.922 00:02:32 Yes
26 BARRERAS TEAM - CA 2058-AU22-JBL BC H 2 08:08:35.30 2049.292 00:02:39 Yes
27 Desert Rose Loft - NV 28295-AU22-JEDD BB H 2 08:08:39.40 2033.115 00:02:43 Yes
28 Skyline Loft - CA 9308-AU22-JEDD BBWF H 1 08:08:46.40 2006.079 00:02:50 Yes
29 Los Banditos - CA 2430-AU22-LOSB BB H 1 08:09:12.20 1912.351 00:03:16 Yes
30 Arizona Inv Syndicate - 0330-AU22-ARIZ BB H 1 08:09:14.90 1903.046 00:03:19 Yes
31 Pairan Family Loft - 0296-AU22-LFO BC H 1 08:09:28.70 1856.867 00:03:32 Yes
32 Jsrl Loft - 0069-AU22-JSRL BB H 1 08:09:31.20 1848.739 00:03:35 Yes
33 Tim Brandon - CA 22119-AU22-SNV DC H 2 08:09:31.50 1847.769 00:03:35 Yes
34 Zapopan- Palomar- Ayon Loft - TX 0009-AU22-AFLC Persoons/T6-Red Monky #33 BBSP H 1 08:09:37.70 1827.938 00:03:41 Yes
35 Funny Farm Loft - CA 6043-AU22-ARC 4428/45353 BC H 1 08:09:39.20 1823.204 00:03:43 Yes
36 Quest Syndicate - TX 0254-AU22-QUES BBSP H 1 08:09:47.40 1797.753 00:03:51 Yes
37 Nemeth Family Loft - CA 1032-AU22-NEME BB H 1 08:09:50.70 1787.709 00:03:54 Yes
38 SilvioKarges - ON 4691-AU22-VITA BB H 1 08:09:52.20 1783.181 00:03:56 Yes
39 Humberto Franco - 101821-MX22-FMC BC H 1 08:09:57.00 1768.844 00:04:01 Yes
40 Stealth Loft - UT 0549-AU22-STEA BC H 1 08:10:05.00 1745.455 00:04:09 Yes
41 El Dorado Lofts Canada - BC 1054-AU22-SIER BB H 2 08:10:05.60 1743.725 00:04:09 Yes
42 Red Star Loft - PH 0710-AU22-SD BB H 1 08:10:15.70 1715.121 00:04:19 Yes
43 SilvioKarges - ON 4615-AU22-VITA BB H 2 08:10:23.80 1692.850 00:04:28 Yes
44 C L & Patty Gage - TX 0214-AU22-DENT BB H 1 08:10:43.00 1642.302 00:04:47 Yes
45 Denor - 22065-AU22-DEHE BB H 1 08:10:57.70 1605.595 00:05:01 Yes
46 Hawaiian Express - CA 84778-AU22-ARPU BC H 1 08:11:09.70 1576.825 00:05:13 Yes
47 Mesopotamia Loft - CA 0609-AU22-VITA BB H 2 08:11:47.00 1493.635 00:05:51 Yes
48 Barragan Racing Loft - CA 0011-AU22-BRL BB H 1 08:11:48.40 1490.683 00:05:52 Yes
49 Four For More - CA 0354-AU22-VIP BB H 1 08:11:57.80 1471.162 00:06:01 Yes
50 Champions Loft - CA 0317-AU22-BPRC BBWF H 1 08:12:01.10 1464.429 00:06:05 Yes
51 Brandon Roberts - 0232-AU22-RFL BC H 1 08:12:14.10 1438.496 00:06:18 Yes
52 Rick Barker - CA 0110-AU22-VIP BB H 1 08:12:32.40 1403.509 00:06:36 Yes
53 Rick Barker - CA 0118-AU22-VIP BB H 2 08:13:07.20 1341.463 00:07:11 Yes
54 Greg McKnight - CA 0769-AU22-JEDD BBSP H 1 08:13:17.90 1323.474 00:07:22 Yes
55 Tony Chang - CA 31446-AU22-JEDD BB H 1 08:13:32.90 1299.053 00:07:37 Yes
56 Hawaiian Express - CA 0370-AU22-PONO BCWF H 2 08:13:33.20 1298.574 00:07:37 Yes
57 Hawaiian Express - CA 84779-AU22-ARPU BCWF H 3 08:13:52.00 1269.231 00:07:56 Yes
58 Fassio Loft - UT 2415-AU22-SLI Silver Daniel BBWF H 2 08:13:56.60 1262.252 00:08:00 Yes
59 Flores Bro’s - CA 47182-AU22-JEDD SIL H 1 08:14:12.60 1238.564 00:08:16 Yes
60 Nanez Family Loft - WI 7156-AU22-NANE BB H 1 08:14:23.80 1222.505 00:08:28 Yes
61 Rick Barker - CA 0123-AU22-VIP BB H 3 08:14:35.30 1206.444 00:08:39 Yes
62 Monte Vista Loft - CO 0436-AU22-MVL BB H 1 08:14:47.10 1190.396 00:08:51 Yes
63 Dan & Greg Coury - AZ 2066-AU22-PEGA BC H 1 08:15:09.10 1161.588 00:09:13 Yes
64 Tbird Loft - AZ 0153-AU22-ARPU BBWF H 1 08:15:30.00 1135.484 00:09:34 Yes
65 Martha's Loft - CA 0015-AU22-Y2K BC H 1 08:15:53.00 1108.080 00:09:57 Yes
66 Genesis Syndicate - 0681-AU22-GENE BBWF H 2 08:16:18.00 1079.755 00:10:22 Yes
67 SilvioKarges - ON 4610-AU22-VITA BB H 3 08:16:30.50 1066.128 00:10:34 Yes
68 A P C Loft - TX 22161-AU22-APC BB H 1 08:17:00.30 1034.990 00:11:04 Yes
69 Rick Barker - CA 0146-AU22-VIP BB H 4 08:17:02.50 1032.763 00:11:06 Yes
70 Sweet Caroline Loft - CA 16202-AU22-JEDD BBWF H 1 08:17:06.20 1029.039 00:11:10 Yes
71 Dave Hunsicken - 22033-AU22-SYV BB H 1 08:17:22.70 1012.755 00:11:26 Yes
72 Fassio Loft - UT 2414-AU22-SLI Red & Silver RED H 3 08:17:47.90 988.857 00:11:52 Yes
73 RamRivera - CA 0137-AU22-RAMR “Rider” BC H 1 08:17:58.90 978.775 00:12:03 Yes
74 Team Phoenix - AZ 0297-AU22-PHOE BB H 1 08:18:11.10 967.831 00:12:15 Yes
75 Hi-Cal Connection - CA 0081-AU22-JSRL BC H 2 08:18:19.90 960.087 00:12:24 Yes
76 Camello Loft 2 - NV 24039-AU22-MISS BCSP H 1 08:18:35.70 946.491 00:12:39 Yes
77 G.S.P Loft - CA 0043-AU22-SHEL BBWF H 1 08:18:46.40 937.500 00:12:50 Yes
78 Arizona Inv Syndicate - 1127-AU22-ARZ BCSP H 2 08:18:47.60 936.502 00:12:51 Yes
79 LFL - Norman Lewellen - HI 1981-AU22-VITA GRIZ H 2 08:18:48.10 936.087 00:12:52 Yes
80 Humberto Munoz - EM 9069-AU22-FMC BB H 1 08:19:06.80 920.823 00:13:11 Yes
81 Genesis Syndicate - 0705-AU22-GENE BB H 3 08:19:15.30 914.048 00:13:19 Yes
81 Zhiping Zhao - 45202-AU22-JEDD BB H 1 08:19:15.30 914.048 00:13:19 Yes
83 Sweet Caroline Loft - CA 26375-AU22-FOYS BB H 2 08:19:38.10 896.359 00:13:42 Yes
84 Team Phoenix - AZ 0920-AU22-ARZ BB H 2 08:19:41.40 893.855 00:13:45 Yes
85 Hassan Syndicate - CA 0637-AU22-VITA BC H 1 08:19:56.00 882.943 00:14:00 Yes
86 Rick Barker - CA 0111-AU22-VIP BBWF H 5 08:19:58.10 881.396 00:14:02 Yes
86 BARRERAS TEAM - CA 2025-AU22-JBL BB H 3 08:19:58.10 881.396 00:14:02 Yes
88 Arizona Inv Syndicate - 0305-AU22-DOSS BB H 3 08:20:43.00 849.558 00:14:47 Yes
89 Team Phoenix - AZ 0191-AU22-PHOE BBWF H 3 08:21:03.50 835.774 00:15:07 Yes
90 Rick Barker - CA 0129-AU22-VIP BB H 6 08:21:09.70 831.693 00:15:13 Yes
91 Zhiping Zhao - 45201-AU22-JEDD BB H 2 08:21:20.60 824.613 00:15:24 Yes
92 Greg McKnight - CA 0732-AU22-JEDD BB H 2 08:21:43.50 810.127 00:15:47 Yes
93 Champions Loft - CA 0119-AU22-BPRC BC H 2 08:21:44.90 809.257 00:15:49 Yes
94 Bob, Igor, & Joe - 0101-IF22-CC BC H 1 08:22:22.90 786.358 00:16:27 Yes
95 Nanez Family Loft - WI 7161-AU22-NANE BC H 2 08:22:42.40 775.103 00:16:46 Yes
96 Desert Rose Loft - NV 28201-AU22-JEDD BC H 3 08:23:28.30 749.840 00:17:32 Yes
97 Greg McKnight - CA 0731-AU22-JEDD RED H 3 08:23:30.10 748.883 00:17:34 Yes
98 Ancona Loft - CA 0416-AU22-ANCO BC H 1 08:23:31.40 748.193 00:17:35 Yes
99 Genesis Syndicate - 0713-AU22-GENE BBSP H 4 08:23:32.30 747.716 00:17:36 Yes
100 Humberto Franco - 101830-MX22-FMC DCSP H 2 08:23:40.30 743.505 00:17:44 Yes

There are 678 bird records

Note: These Race Results are unofficial and subject to change until verified by the Race Committee and declared final.